Flag for U.S.A. Weather past 2 weeks in Seattle, Washington, U.S.A.

Now
50 °F

Passing clouds.


Feels Like: 50 °F
Forecast: 35 / 47 °F
Wind: No wind

Location: Seattle Boeing Field

Current Time: Mar 2, 2015 at 7:18:08 PM

Latest Report: Mar 2, 2015 at 6:53 PM


Visibility: 10 mi

Pressure: 30.07 "Hg

Humidity: 44%

Dew point: 29 °F

Location of SeattleLocation

Historic Weather in Seattle — Graph

°F

Seattle temperature yesterday

Maximum temperature yesterday: 54 °F (at 11:53 AM)
Minimum temperature yesterday: 35 °F (at 2:53 AM)
Average temperature yesterday: 46 °F

Past Weeks' High & Low Weather Summary

 TemperatureHumidityPressure
High61 °F (Feb 16, 1:53 PM)93% (Feb 22, 7:53 AM)30.47 "Hg (Feb 22, 7:53 AM)
Low33 °F (Feb 23, 4:53 AM)24% (Feb 28, 4:53 PM)29.72 "Hg (Feb 27, 5:53 AM)
Average49 °F66%30.22 "Hg
* Reported Feb 15 5:53 PM — Mar 2 5:53 PM, Seattle, Weather by CustomWeather, © 2015

Note: Actual official high and low records may vary slightly from our data, if they occured in-between our weather recording intervals... More about our weather records

Advertising

Seattle weather history for previous 24 hours

 ConditionsComfort  
Time TempWeatherWind HumidityBarometerVisibility
5:53 PM
Mon, Mar 2
52 °FScattered clouds.6 mph45%30.05 "Hg10 mi
4:53 PM53 °FPassing clouds.9 mph38%30.05 "Hg10 mi
3:53 PM54 °FSunny.12 mph41%30.04 "Hg10 mi
2:53 PM54 °FScattered clouds.12 mph47%30.02 "Hg10 mi
1:53 PM53 °FScattered clouds.10 mph48%30.02 "Hg10 mi
12:53 PM52 °FPartly sunny.10 mph55%30.03 "Hg10 mi
11:53 AM49 °FPartly sunny.10 mph61%30.04 "Hg10 mi
10:53 AM49 °FPartly sunny.8 mph59%30.04 "Hg10 mi
9:53 AM48 °FOvercast.7 mph61%30.04 "Hg10 mi
8:53 AM47 °FBroken clouds.5 mph64%30.04 "Hg10 mi
7:53 AM46 °FBroken clouds.6 mph66%30.03 "Hg10 mi
6:53 AM46 °FMostly cloudy.6 mph68%30.01 "Hg10 mi
5:53 AM46 °FMostly cloudy.6 mph68%30.01 "Hg10 mi
4:53 AM46 °FMostly cloudy.8 mph68%30.00 "Hg10 mi
3:53 AM46 °FOvercast.9 mph68%29.99 "Hg10 mi
2:53 AM47 °FOvercast.6 mph61%29.98 "Hg10 mi
1:53 AM46 °FOvercast.5 mph63%29.99 "Hg10 mi
12:53 AM46 °FOvercast.5 mph66%29.99 "Hg10 mi
11:53 PM
Sun, Mar 1
47 °FMostly cloudy.3 mph64%29.99 "Hg10 mi
10:53 PM47 °FOvercast.5 mph64%29.98 "Hg10 mi
9:53 PM48 °FOvercast.3 mph56%29.99 "Hg10 mi
8:53 PM49 °FOvercast.No wind50%29.98 "Hg10 mi
7:53 PM50 °FOvercast.3 mph50%29.98 "Hg10 mi
Weather by CustomWeather, © 2015

See weather overviewHow to use our weather pages